Total_Precipitation_Accumulation
1.79 1.93 1.86 1.81 1.81 1.85 1.91 1.99 2.02 1.88 1.59 1.15 1.00 0.94 0.97 1.06 1.35 1.19 1.05 1.06 0.95 0.87 0.78 0.71 0.67 0.69 0.85 1.04 1.29 1.52 1.67 1.80 1.86 1.85 1.79 1.77 1.84 1.90
1.60 1.72 1.84 1.86 1.87 1.87 1.92 1.94 1.91 1.88 1.75 1.34 1.07 0.90 0.96 0.94 1.16 0.97 1.07 1.24 1.02 0.85 0.77 0.72 0.68 0.66 0.66 0.74 0.81 0.87 0.91 0.97 1.10 1.29 1.34 1.31 1.31 1.37
1.38 1.43 1.59 1.72 1.84 1.87 1.86 1.85 1.90 1.85 1.73 1.49 1.16 0.98 1.06 1.07 1.14 1.00 0.99 1.03 0.95 0.91 0.83 0.74 0.67 0.65 0.62 0.64 0.65 0.61 0.63 0.64 0.70 0.84 0.96 0.97 0.94 0.96
1.25 1.32 1.38 1.39 1.51 1.64 1.74 1.73 1.80 1.85 1.81 1.70 1.41 1.17 1.14 1.20 1.34 1.34 1.23 1.15 1.12 1.21 1.16 0.97 0.82 0.74 0.70 0.67 0.64 0.59 0.56 0.57 0.57 0.62 0.73 0.86 0.97 0.96
1.08 1.14 1.17 1.25 1.37 1.39 1.46 1.56 1.64 1.70 1.79 1.73 1.63 1.50 1.32 1.25 1.31 1.30 1.36 1.50 1.45 1.43 1.47 1.29 1.07 0.91 0.83 0.78 0.72 0.66 0.61 0.60 0.59 0.57 0.60 0.67 0.77 0.88
0.95 1.03 1.09 1.12 1.22 1.30 1.31 1.43 1.55 1.64 1.67 1.64 1.57 1.50 1.44 1.40 1.40 1.37 1.43 1.57 1.64 1.54 1.50 1.42 1.33 1.21 1.05 0.93 0.82 0.75 0.71 0.67 0.66 0.63 0.61 0.64 0.69 0.76
0.87 0.90 0.93 0.89 0.93 1.00 1.00 1.18 1.35 1.53 1.60 1.63 1.53 1.41 1.36 1.37 1.36 1.37 1.43 1.60 1.63 1.68 1.68 1.55 1.41 1.24 1.13 1.04 0.92 0.85 0.80 0.74 0.70 0.69 0.69 0.68 0.71 0.77
0.76 0.78 0.85 0.87 0.82 0.78 0.77 0.86 1.00 1.13 1.31 1.44 1.48 1.39 1.31 1.29 1.37 1.48 1.49 1.57 1.67 1.60 1.53 1.61 1.54 1.43 1.26 1.07 1.08 1.06 0.95 0.84 0.76 0.74 0.72 0.70 0.69 0.74
0.59 0.71 0.83 0.88 0.90 0.92 0.81 0.80 0.81 0.85 0.95 1.13 1.27 1.28 1.26 1.27 1.34 1.43 1.49 1.54 1.45 1.49 1.45 1.54 1.54 1.43 1.27 1.21 1.26 1.12 1.04 0.97 0.92 0.85 0.80 0.78 0.77 0.79
0.51 0.63 0.78 0.88 0.91 0.94 0.90 0.97 0.93 0.82 0.79 0.86 1.05 1.14 1.15 1.28 1.41 1.52 1.63 1.61 1.55 1.54 1.47 1.49 1.43 1.30 1.20 1.19 1.28 1.15 1.04 0.98 0.94 0.92 0.90 0.86 0.86 0.89
0.48 0.56 0.72 0.81 0.92 0.95 0.92 1.02 1.02 0.83 0.75 0.84 0.90 0.96 1.05 1.19 1.38 1.52 1.61 1.62 1.59 1.55 1.40 1.27 1.21 1.25 1.26 1.19 1.17 1.16 1.04 0.94 0.87 0.84 0.83 0.82 0.85 0.94
0.50 0.55 0.75 0.82 0.86 0.83 0.85 1.06 1.14 0.99 0.75 0.74 0.81 0.94 1.01 1.15 1.37 1.52 1.74 1.76 1.56 1.51 1.39 1.26 1.24 1.33 1.46 1.35 1.16 1.06 0.99 1.00 0.96 0.91 0.88 0.88 0.97 0.95
0.39 0.45 0.48 0.61 0.65 0.71 0.81 0.91 1.01 0.90 0.81 0.89 0.99 1.01 1.08 1.13 1.23 1.35 1.57 1.76 1.70 1.49 1.36 1.37 1.35 1.33 1.32 1.27 1.19 1.08 0.97 0.95 0.92 0.91 0.95 0.99 1.04 1.02
0.31 0.36 0.42 0.53 0.57 0.63 0.69 0.73 0.77 0.81 0.87 1.00 1.02 0.94 0.98 1.04 1.05 1.14 1.30 1.44 1.35 1.30 1.21 1.16 1.18 1.13 1.09 1.02 1.01 1.04 1.05 0.98 0.94 0.93 0.91 1.06 1.12 1.13
0.28 0.35 0.38 0.45 0.45 0.50 0.58 0.61 0.68 0.88 1.01 0.97 0.95 0.91 0.89 0.91 0.90 1.01 1.21 1.35 1.30 1.13 1.05 0.99 0.99 0.99 0.98 0.92 0.86 0.84 0.91 0.94 0.89 0.89 0.92 0.92 0.93 1.01
0.31 0.35 0.37 0.42 0.44 0.46 0.54 0.63 0.74 0.90 1.05 0.92 0.80 0.80 0.81 0.88 0.94 0.93 1.02 1.11 1.25 1.23 1.11 1.03 0.99 1.00 0.98 0.88 0.85 0.81 0.75 0.78 0.83 0.89 0.92 0.92 0.90 0.88
0.34 0.42 0.52 0.61 0.61 0.62 0.68 0.72 0.75 0.76 0.82 0.77 0.77 0.82 0.86 0.87 0.91 0.92 0.93 0.94 0.97 1.01 1.06 1.04 1.00 1.02 1.04 0.99 0.92 0.83 0.79 0.74 0.77 0.88 1.00 1.02 0.97 0.94
0.45 0.49 0.60 0.74 0.79 0.82 0.82 0.83 0.84 0.80 0.82 0.78 0.81 0.83 0.81 0.79 0.80 0.86 0.94 1.00 0.94 0.85 0.83 0.84 0.88 0.97 1.04 1.06 0.95 0.84 0.83 0.83 0.84 0.86 0.89 0.92 0.91 0.90
0.48 0.52 0.70 0.77 0.75 0.78 0.85 0.88 0.82 0.72 0.73 0.75 0.71 0.69 0.68 0.65 0.67 0.71 0.79 0.86 0.87 0.82 0.79 0.78 0.83 0.89 0.92 0.87 0.82 0.74 0.76 0.83 0.90 0.90 0.85 0.81 0.78 0.77
0.54 0.71 0.88 0.93 0.87 0.81 0.78 0.74 0.67 0.62 0.61 0.60 0.62 0.62 0.65 0.65 0.65 0.64 0.65 0.68 0.73 0.77 0.83 0.84 0.87 0.89 0.91 0.87 0.80 0.73 0.70 0.75 0.82 0.88 0.86 0.86 0.88 0.92
0.58 0.71 0.84 0.93 0.89 0.76 0.67 0.62 0.58 0.57 0.55 0.55 0.59 0.63 0.64 0.65 0.64 0.65 0.64 0.66 0.69 0.72 0.75 0.76 0.80 0.94 0.99 1.02 0.97 0.80 0.74 0.81 0.88 0.88 0.88 0.91 0.92 0.89
0.52 0.55 0.58 0.59 0.57 0.56 0.59 0.57 0.55 0.58 0.57 0.57 0.59 0.62 0.65 0.71 0.70 0.66 0.66 0.66 0.66 0.67 0.67 0.69 0.77 0.91 0.99 1.04 0.96 0.83 0.75 0.78 0.90 0.99 0.97 0.95 0.91 0.86
0.51 0.50 0.51 0.52 0.52 0.51 0.53 0.53 0.53 0.55 0.57 0.58 0.61 0.64 0.65 0.66 0.69 0.68 0.67 0.67 0.67 0.67 0.69 0.71 0.76 0.87 0.96 0.99 0.96 0.89 0.82 0.80 0.82 0.85 0.86 0.91 0.89 0.82